www.pogodaiklimat.ru

ПОГОДА в Лондоне, KY

  • Прогноз погоды в Лондоне
  • Монитор погоды в Лондоне
  • Климат в Лондоне

АРХИВ ПОГОДЫ в Лондоне

Время (UTC), дата Ветер
(напр.,м/с)
 
Видим.   Явления Облачность Т
(С)
Тd
(С)
f
(%)
Тe
(С)
Тes
(С)
Комфортность

P
(гПа)

Po
(гПа)
Тmin
(С)
Tmax
(С)
R
(мм)
SD
(см)
04:18 22.03 З  16 км    10/10 870 м  +3.9  +1.7  86  -1  -1      973.1         
04:39 22.03 З  16 км    10/10 900 м  +3.9  +1.7  86  -1  -1      973.1         
04:53 22.03 З  16 км    10/10 900 м  +3.9  +1.7  86  -1  -1    1017.2  973.1  +3.9  +5.0     
05:53 22.03 З  16 км    10/10 1020 м  +3.9  +1.7  86  0  0    1017.2  973.1         
06:53 22.03 З  16 км    10/10 1080 м  +3.9  +1.7  86  0  0    1016.6  972.8         
07:31 22.03 З  16 км    10/10 870 м  +3.9  +1.7  86  -1  -1      972.4         
07:53 22.03 З  16 км    10/10 870 м  +3.9  +1.7  86  -1  -1    1016.1  972.1         
08:07 22.03 З  16 км    10/10 870 м  +3.9  +1.7  86  -0  -0      972.1         
08:53 22.03 З  16 км    10/10 1110 м  +3.9  +1.7  86  -0  -0    1016.1  972.1         
09:53 22.03 ЮЗ  16 км    10/10 1290 м  +4.4  +1.1  79  +1  +1    1016.3  972.1         
10:53 22.03 ЮЗ  16 км    10/10 1170 м  +4.4  +1.1  79  +1  +1    1016.4  972.4  +3.9  +4.4     
11:53 22.03 З  16 км    10/10 1080 м  +5.0  +1.1  76  0  0    1016.5  972.4         
12:53 22.03 З  16 км    ясно  +6.1  +1.7  73  +1  +2    1016.1  972.1         
13:53 22.03 З  4
{9} 
16 км    2/2 960 м  +8.9  +2.2  63  +6  +8    1016.1  972.1         
14:53 22.03 З  8
{12} 
16 км    ясно  +10.6  +2.2  56  +7  +8    1015.8  971.8         
15:53 22.03 З  9
{13} 
16 км    ясно  +12.2  +1.7  49  +9  +9    1015.0  971.1         
16:53 22.03 З  10
{15} 
16 км    ясно  +13.9  0.0  38  +11  +11    1014.8  971.1  +4.4  +13.9     
17:53 22.03 СЗ  6
{13} 
16 км    5/5 1800 м  +14.4  +1.1  40  +13  +14    1014.4  970.8         
18:53 22.03 СЗ  8
{13} 
16 км    2/2 1950 м  +14.4  -0.6  36  +12  +13    1014.3  970.8         
19:53 22.03 С  8
{13} 
16 км    5/5 1950 м  +13.9  -0.6  37  +11  +12    1014.9  971.1         
20:53 22.03 СЗ  6
{13} 
16 км    2/2 1950 м  +12.8  -0.6  40  +10  +12    1015.5  971.8         
21:53 22.03 С  6
{9} 
16 км    5/5 1800 м  +12.2  +0.6  45  +10  +10    1016.6  972.8         
22:53 22.03 С  5
{10} 
16 км    ясно  +10.0  -1.7  44  +7  +7    1017.9  974.1  +10.0  +15.6     
23:53 22.03 С  16 км    ясно  +8.3  -2.8  45  +5  +5    1019.2  975.0         
00:53 23.03 С  16 км    ясно  +7.2  -2.8  49  +4  +4    1020.3  976.0         
01:53 23.03 С  16 км    ясно  +6.1  -3.3  51  +3  +3    1020.9  976.7         
02:53 23.03 СЗ  16 км    ясно  +5.6  -4.4  49  +3  +3    1021.4  977.3         
03:53 23.03   16 км    ясно  +4.4  -4.4  53  +4  +4    1021.9  977.6         
04:53 23.03   16 км    ясно  +2.8  -3.3  64  +2  +2    1021.9  977.6  +1.7  +10.0     
05:53 23.03   16 км    ясно  +1.1  -3.3  72  0  0    1022.6  978.3         
06:53 23.03 С  16 км    ясно  +0.6  -3.3  75  -2  -2    1022.5  978.3         
07:53 23.03   16 км    ясно  +1.1  -3.9  69  0  0    1022.7  978.6         
08:53 23.03   16 км    ясно  -1.1  -4.4  78  -2  -2    1023.4  978.9         
09:53 23.03 СВ  16 км    ясно  -2.2  -4.4  85  -5  -5    1024.2  979.6         
10:53 23.03   16 км    ясно  -2.2  -3.9  88  -3  -3    1025.2  980.5  -2.2  +2.8     
11:53 23.03   16 км    ясно  +0.6  -2.2  81  -0  -0    1026.3  981.5         
12:53 23.03   16 км    ясно  +3.3  -2.2  67  +3  +5    1026.8  982.2         
13:53 23.03   16 км    ясно  +5.6  -2.2  57  +5  +12    1027.4  982.8         
14:53 23.03   16 км    ясно  +7.8  -2.8  47  +8  +20  опасность
простуды 
1027.6  983.1         
15:53 23.03 нст  16 км    ясно  +9.4  -3.9  39  +9  +22  опасность
простуды 
1027.2  982.8         
16:53 23.03 нст  16 км    ясно  +11.7  -4.4  32  +11  +24  опасность
простуды 
1026.9  982.5  -2.2  +11.7     
17:53 23.03   16 км    ясно  +12.8  -6.1  26  +13  +32  опасность
простуды 
1026.2  981.8         
18:53 23.03   16 км    ясно  +13.9  -6.7  23  +14  +31  опасность
простуды 
1025.4  981.2         
19:53 23.03   16 км    ясно  +15.0  -7.2  21  +15  +28  опасность
простуды 
1025.0  980.5         
20:53 23.03     16 км    ясно  +15.6  -7.8  19  +16  +24    1025.1  980.9         
21:53 23.03 С  16 км    ясно  +13.9  -9.4  19  +14  +17    1024.6  980.2         
22:53 23.03   16 км    ясно  +12.8  -8.9  21  +13  +14    1024.9  980.2  +11.7  +15.6     
23:53 23.03 СВ  16 км    ясно  +8.3  -4.4  40  +8  +8    1025.5  980.9         

 

Местоположение метеостанции London-Corbin Airport-Magee Field: широта 37.0894 долгота -84.0686 высота над уровнем моря 369 м.

В архиве по умолчанию представлена погода в Лондоне за последние 1-2 суток. Обновление информации о фактической погоде в базе происходит ежечасно! Архивные данные за месяц целиком и за предыдущие месяцы Вы можете получить, выбрав интересующий диапазон дат из раскрывающегося списка и нажав кнопку "Ввод!".

Внимание! Архив погоды МЕТАР в базе сайта хранится не более 60 дней. Нет смысла пытаться выбрать более раннюю дату.

Внимание! Время в таблицах - всемирное. Для получения местного времени необходимо прибавить поправку, которая в Лондоне равна -5 ч.

Ветер - указаны скорость ветра в м/с и направление, откуда дует ветер: С - северный, СВ - северо-восточный, В - восточный, ЮВ - юго-восточный, Ю - южный, ЮЗ - юго-западный, З - западный, СЗ - северо-западный.
Видимость - горизонтальная дальность видимости в метрах или километрах. При видимости от 1 до 10 км при отсутствии осадков обычно наблюдается дымка, при ухудшении видимости до 1 км и менее - туман. В сухую погоду видимость может ухудшаться дымом, пылью или мглою.
Атмосферные явления - указаны явления, наблюдавшиеся в указанный момент времени.
Облачность - указаны через наклонную черту верхняя и нижняя облачность в баллах и высота нижней границы облаков в метрах. Внимание: облачность, как и прочие метеорологические величины в США измеряются автоматическими метеостанциями. Указанные значения в баллах носят условный характер и показывают процент времени, в течение которого, в среднем, лазерный луч высотомера отражался от облаков обратно.
T - Температура воздуха - температура, измеренная на высоте 2 м над землей.
Td - Температура точки росы - температура, при понижении до которой содержащийся в воздухе водяной пар достигнет насыщения.
f - Относительная влажность воздуха - влажноcть воздуха, измеренная на высоте 2 м над землей.
Te - Эффективная температура - температура, которую ощущает одетый по сезону человек в тени. Характеристика душности погоды. При расчете учитывается влияние влажности воздуха и скорости ветра на теплоощущения человека.
Tes - Эффективная температура на солнце - температура, которую ощущает человек, с поправкой на солнечный нагрев. Характеристика знойности погоды. Зависит от высоты солнца над горизонтом, облачности и скорости ветра. Ночью, в пасмурную погоду, а также при ветре 12 м/с и более поправка равна нулю.
P - Атмосферное давление - приведенное к уровню моря атмосферное давление.
Po - Атмосферное давление - измеренное на уровне метеостанции атмосферное давление.
Tmin - Минимальная температура - минимум температуры воздуха на высоте 2 м над землей.
Tmax - Максимальная температура - максимум температуры воздуха на высоте 2 м над землей.
R - Количество осадков - Количество выпавших осадков за 3 или 6 часов, мм.
SD - Снежный покров - Высота снежного покрова, см.